STARLINK-1192 (45180 NORAD) Tracking and Keplerian Element Data

This shows tracking and keplerian element data for the satellite.

Feedback or suggestion? Click here.




ElementValue
Catalog45180
NameSTARLINK-1192
Epoch Orbit2268
Epoch Day193.91667824
Epoch Year2020
RAAN324.7245
Inclination53.0003
Eccentricity0.000139
Argument of Perigee111.958
Mean Anonmoly96.8148
Mean Motion15.05575676
Decay Rate-3.962E-05
L11 45180U 20012C 20193.91667824 -.00003962 00000-0 -25292-3 0 9996
L22 45180 53.0003 324.7245 0001390 111.9580 96.8148 15.05575676 22687

Live tracking and technical data element details for STARLINK-1192 (NORAD 45180). STARLINK-1192 can be tracked NOW for your location showing map with azimuth and elevation plus other details from your city location.

Track the satellite on the map from your city or location and see movement details for azimuth, elevation, latitude, longitude, range, height, and movement on the map or in text.







IsCatalogInMostPopularTable: catalog: 45180, numindb: 25
Update: records affected: 1



GetName: 45180 STARLINK-1192

Hit Count: updated at: Mon, 13 Jul 2020 04:07:28 GMT